EW0295 Skanderborg DK current weather conditions

sailwx.info

Wind from 182 at 2 knots gusting 6

Air temperature 15.6° C
Dewpoint 14.6° C

Last reported at 2020-Jul-05 04:08 UTC.
Time now 2020-Jul-05 04:36 UTC

Location: N 56°03' E 009°58'.
View on Google Maps.

See reports from other nearby stations

  
Tides and Currents Weather Stations Pressure Air Temp Water Temp Dewpoint Dewpoint Depression Visibility Wind Speed Wind Dir Waves Ship Positions
date/time (UTC)wind fromknots sea level pressurealtimeterstation pressurevisibilityair tempwater tempwave heightnotes
2020-Jul-05 04:08 182 2 gusting 6 15.6
2020-Jul-05 03:59 184 3 gusting 9 15.6
2020-Jul-05 03:50 187 4 gusting 9 15.6
2020-Jul-05 03:41 175 3 gusting 7 15.6
2020-Jul-05 03:32 181 3 gusting 7 15.6
2020-Jul-05 03:23 184 3 gusting 8 15.6
2020-Jul-05 03:14 192 3 gusting 8 15.6
2020-Jul-05 03:05 189 3 gusting 8 15.6
2020-Jul-05 02:56 184 2 gusting 8 15.6
2020-Jul-05 02:47 190 3 gusting 7 15.6
2020-Jul-05 02:38 194 3 gusting 8 15.6
2020-Jul-05 02:29 200 2 gusting 8 15.6
2020-Jul-05 02:20 194 2 gusting 7 15.6
2020-Jul-05 02:11 199 3 gusting 8 15.6
2020-Jul-05 02:02 198 3 gusting 7 15.6
2020-Jul-05 01:53 202 3 gusting 7 15.6
2020-Jul-05 01:44 199 3 gusting 8 15.6
2020-Jul-05 01:35 200 3 gusting 8 15.6
2020-Jul-05 01:26 195 2 gusting 7 15.6
2020-Jul-05 01:08 198 4 gusting 9 15.6
2020-Jul-05 00:59 200 3 gusting 8 15.6
2020-Jul-05 00:50 198 3 gusting 10 15.6
2020-Jul-05 00:41 201 3 gusting 9 15.6
2020-Jul-05 00:32 199 3 gusting 8 15.6
2020-Jul-05 00:23 199 3 gusting 8 15.6
2020-Jul-05 00:14 200 1 gusting 6 15.6
2020-Jul-05 00:05 208 2 gusting 6 15.6
2020-Jul-04 23:56 204 2 gusting 6 15.6
2020-Jul-04 23:47 206 3 gusting 6 15.6
2020-Jul-04 23:38 211 2 gusting 9 15.0
2020-Jul-04 23:29 207 3 gusting 9 15.0
2020-Jul-04 23:20 205 1 gusting 6 15.0
2020-Jul-04 23:11 212 2 gusting 6 15.0
2020-Jul-04 23:02 210 3 gusting 8 15.0
2020-Jul-04 22:53 206 2 gusting 7 15.0
2020-Jul-04 22:44 212 2 gusting 7 15.0
2020-Jul-04 22:35 210 2 gusting 6 15.0
2020-Jul-04 22:26 206 2 gusting 7 15.0
2020-Jul-04 22:17 210 2 gusting 7 15.0
2020-Jul-04 22:08 210 1 gusting 6 15.0
2020-Jul-04 21:59 212 1 gusting 5 15.0
2020-Jul-04 21:50 211 1 gusting 6 15.0
2020-Jul-04 21:41 209 1 gusting 6 15.0
2020-Jul-04 21:32 204 1 gusting 6 15.0
2020-Jul-04 21:23 210 1 gusting 7 15.0
2020-Jul-04 21:14 214 1 gusting 6 15.0
2020-Jul-04 21:05 215 2 gusting 6 15.6
2020-Jul-04 20:56 218 1 gusting 6 15.6
2020-Jul-04 20:47 229 2 gusting 6 15.6
2020-Jul-04 20:38 219 2 gusting 10 15.6
2020-Jul-04 20:29 221 1 gusting 7 15.6
2020-Jul-04 20:20 220 2 gusting 6 15.6
2020-Jul-04 20:11 223 2 gusting 8 15.6
2020-Jul-04 20:02 226 2 gusting 6 15.6
2020-Jul-04 19:53 219 1 gusting 7 15.6
2020-Jul-04 19:44 223 1 gusting 6 15.6
2020-Jul-04 19:35 225 2 gusting 7 15.6
2020-Jul-04 19:26 228 1 gusting 6 15.6
2020-Jul-04 19:17 230 2 gusting 7 15.6
2020-Jul-04 19:08 230 0 gusting 6 15.6
2020-Jul-04 18:59 237 1 gusting 6 15.6
2020-Jul-04 18:50 242 3 gusting 8 15.6
2020-Jul-04 18:41 232 2 gusting 7 15.6
2020-Jul-04 18:32 239 2 gusting 6 15.6
2020-Jul-04 18:23 241 4 gusting 10 15.6
2020-Jul-04 18:14 238 2 gusting 9 15.6
2020-Jul-04 18:05 244 2 gusting 7 16.1
2020-Jul-04 17:56 244 3 gusting 8 15.6
2020-Jul-04 17:47 237 3 gusting 10 15.6
2020-Jul-04 17:38 233 2 gusting 9 16.1
2020-Jul-04 17:29 231 2 gusting 8 15.6
2020-Jul-04 17:20 245 3 gusting 9 15.6
2020-Jul-04 17:11 242 4 gusting 11 15.6
2020-Jul-04 17:02 238 3 gusting 8 15.6
2020-Jul-04 16:53 242 3 gusting 9 15.6
2020-Jul-04 16:44 240 4 gusting 9 15.6
2020-Jul-04 16:35 242 4 gusting 9 15.6
2020-Jul-04 16:26 237 3 gusting 8 15.6
2020-Jul-04 16:17 232 3 gusting 9 16.1
2020-Jul-04 16:08 237 3 gusting 8 15.6
2020-Jul-04 15:59 229 3 gusting 8 16.1
2020-Jul-04 15:50 229 3 gusting 9 16.1
2020-Jul-04 15:41 227 3 gusting 9 16.1
2020-Jul-04 15:32 227 2 gusting 9 16.1
2020-Jul-04 15:24 226 2 gusting 8 15.6
2020-Jul-04 15:14 229 2 gusting 6 15.6
2020-Jul-04 15:05 248 2 gusting 6 15.6
2020-Jul-04 14:56 250 2 gusting 6 15.6
2020-Jul-04 14:47 222 2 gusting 8 16.1
2020-Jul-04 14:38 215 2 gusting 8 16.1
2020-Jul-04 14:29 224 2 gusting 7 16.1
2020-Jul-04 14:20 237 1 gusting 5 15.6
2020-Jul-04 14:11 244 2 gusting 6 15.6
2020-Jul-04 14:02 247 1 gusting 5 15.6
2020-Jul-04 13:53 221 1 gusting 6 15.6
2020-Jul-04 13:44 212 2 gusting 6 15.6
2020-Jul-04 13:35 210 2 gusting 10 15.6
2020-Jul-04 13:26 206 2 gusting 7 15.6
2020-Jul-04 13:17 209 2 gusting 8 15.6
2020-Jul-04 13:08 197 2 gusting 6 15.6
2020-Jul-04 12:59 202 2 gusting 6 15.6
2020-Jul-04 12:50 216 2 gusting 7 15.6
2020-Jul-04 12:41 206 3 gusting 8 15.6
2020-Jul-04 12:32 209 2 gusting 7 15.6
2020-Jul-04 12:23 217 3 gusting 7 15.6
2020-Jul-04 12:14 211 2 gusting 7 15.6
2020-Jul-04 12:05 213 3 gusting 10 15.6
2020-Jul-04 11:56 220 3 gusting 10 15.6
2020-Jul-04 11:47 214 4 gusting 12 15.6
2020-Jul-04 11:38 215 3 gusting 10 15.6
2020-Jul-04 11:29 213 2 gusting 8 15.6
2020-Jul-04 11:20 221 3 gusting 9 15.6
2020-Jul-04 11:12 225 2 gusting 9 15.6
2020-Jul-04 11:04 218 3 gusting 11 15.6
2020-Jul-04 10:53 215 3 gusting 11 15.6
2020-Jul-04 10:44 228 3 gusting 8 15.6
2020-Jul-04 10:35 221 3 gusting 9 15.6
2020-Jul-04 10:26 225 3 gusting 9 15.6
2020-Jul-04 10:17 233 3 gusting 8 15.6
2020-Jul-04 10:08 226 4 gusting 10 15.6
2020-Jul-04 09:59 221 3 gusting 9 15.6
2020-Jul-04 09:50 224 2 gusting 8 15.6
2020-Jul-04 09:41 223 4 gusting 9 15.6
2020-Jul-04 09:32 214 5 gusting 13 15.6
2020-Jul-04 09:23 223 4 gusting 10 15.6
2020-Jul-04 09:14 207 4 gusting 13 15.6
2020-Jul-04 09:05 212 3 gusting 13 15.6
2020-Jul-04 08:56 230 5 gusting 11 15.6
2020-Jul-04 08:47 216 4 gusting 11 15.6
2020-Jul-04 08:38 213 3 gusting 12 15.6
2020-Jul-04 08:29 223 4 gusting 12 15.0
2020-Jul-04 08:20 222 4 gusting 12 15.0
2020-Jul-04 08:11 215 3 gusting 9 15.0
2020-Jul-04 08:02 216 4 gusting 13 15.0
2020-Jul-04 07:53 218 4 gusting 10 15.0
2020-Jul-04 07:44 228 5 gusting 11 15.0
2020-Jul-04 07:35 221 5 gusting 12 15.0
2020-Jul-04 07:26 222 5 gusting 13 15.0
2020-Jul-04 07:17 217 4 gusting 11 15.0
2020-Jul-04 07:08 223 4 gusting 9 15.0
2020-Jul-04 06:59 227 5 gusting 13 15.0
2020-Jul-04 06:50 228 4 gusting 14 15.0
2020-Jul-04 06:41 224 5 gusting 12 15.0
2020-Jul-04 06:32 226 4 gusting 12 15.0
2020-Jul-04 06:23 222 4 gusting 13 15.0
2020-Jul-04 06:14 225 4 gusting 10 15.0
2020-Jul-04 06:05 220 4 gusting 11 15.0
2020-Jul-04 05:56 219 4 gusting 9 14.4
2020-Jul-04 05:47 219 4 gusting 12 14.4
2020-Jul-04 05:38 221 4 gusting 12 14.4
2020-Jul-04 05:29 217 4 gusting 10 14.4
2020-Jul-04 05:20 219 5 gusting 13 14.4
2020-Jul-04 05:11 219 4 gusting 11 14.4
2020-Jul-04 05:02 220 5 gusting 12 14.4
2020-Jul-04 04:53 220 4 gusting 12 14.4
2020-Jul-04 04:44 216 4 gusting 9 14.4
2020-Jul-04 04:35 216 3 gusting 10 14.4
2020-Jul-04 04:26 214 3 gusting 8 14.4
2020-Jul-04 04:17 221 4 gusting 13 14.4
2020-Jul-04 04:08 218 4 gusting 13 14.4
2020-Jul-04 03:59 218 4 gusting 11 14.4
2020-Jul-04 03:50 214 3 gusting 10 14.4
2020-Jul-04 03:41 213 3 gusting 10 14.4
2020-Jul-04 03:32 217 3 gusting 11 14.4
2020-Jul-04 03:23 217 4 gusting 12 14.4
2020-Jul-04 03:14 224 4 gusting 11 14.4
2020-Jul-04 03:05 227 4 gusting 12 14.4
2020-Jul-04 02:56 221 4 gusting 11 14.4
2020-Jul-04 02:47 220 3 gusting 7 14.4
2020-Jul-04 02:38 228 4 gusting 12 13.9
2020-Jul-04 02:29 227 5 gusting 11 14.4
2020-Jul-04 02:20 222 5 gusting 13 14.4
2020-Jul-04 02:11 210 4 gusting 13 14.4
2020-Jul-04 02:02 216 4 gusting 11 14.4
2020-Jul-04 01:53 216 4 gusting 14 13.9
2020-Jul-04 01:44 218 3 gusting 8 13.9
2020-Jul-04 01:35 218 4 gusting 10 13.9
2020-Jul-04 01:26 212 4 gusting 8 13.9
2020-Jul-04 01:17 214 4 gusting 11 13.9
2020-Jul-04 01:08 216 5 gusting 15 13.9
2020-Jul-04 00:59 205 4 gusting 13 13.9
2020-Jul-04 00:50 200 5 gusting 15 13.9
2020-Jul-04 00:41 200 5 gusting 13 13.9
2020-Jul-04 00:32 200 6 gusting 13 13.9
2020-Jul-04 00:23 202 5 gusting 12 13.9
2020-Jul-04 00:14 194 4 gusting 10 13.9
2020-Jul-04 00:05 203 4 gusting 16 13.9
2020-Jul-03 23:56 199 4 gusting 10 13.9
2020-Jul-03 23:47 195 5 gusting 13 13.3
2020-Jul-03 23:38 186 4 gusting 13 13.3
2020-Jul-03 23:29 192 5 gusting 11 13.3
2020-Jul-03 23:20 187 5 gusting 12 13.3
2020-Jul-03 23:11 191 4 gusting 12 13.3
2020-Jul-03 23:02 198 4 gusting 11 13.3
2020-Jul-03 22:53 199 4 gusting 10 13.3
2020-Jul-03 22:44 197 3 gusting 10 13.3
2020-Jul-03 22:35 198 3 gusting 10 13.3
2020-Jul-03 22:26 199 3 gusting 10 13.3
2020-Jul-03 22:17 190 3 gusting 8 13.3
2020-Jul-03 22:08 193 4 gusting 8 12.8
2020-Jul-03 21:59 196 2 gusting 7 12.8
2020-Jul-03 21:50 193 3 gusting 8 12.8
2020-Jul-03 21:41 197 4 gusting 8 12.8
2020-Jul-03 21:32 194 3 gusting 8 12.8
2020-Jul-03 21:23 189 3 gusting 10 12.8
2020-Jul-03 21:14 187 3 gusting 10 12.8
2020-Jul-03 21:05 186 4 gusting 9 12.8
2020-Jul-03 20:56 188 3 gusting 9 12.8
2020-Jul-03 20:47 180 4 gusting 10 12.8
2020-Jul-03 20:38 176 3 gusting 8 12.8
2020-Jul-03 20:29 177 3 gusting 8 12.8
2020-Jul-03 20:20 179 3 gusting 8 12.8
2020-Jul-03 20:11 180 2 gusting 7 12.8
2020-Jul-03 20:02 192 2 gusting 7 12.8
2020-Jul-03 19:53 198 2 gusting 8 12.8
2020-Jul-03 19:44 199 2 gusting 6 12.8
2020-Jul-03 19:35 206 2 gusting 7 12.8
2020-Jul-03 19:26 214 2 gusting 7 12.8
2020-Jul-03 19:17 222 2 gusting 7 12.8
2020-Jul-03 19:08 227 3 gusting 12 13.3
2020-Jul-03 18:59 226 2 gusting 9 13.3
2020-Jul-03 18:50 225 2 gusting 10 13.3
2020-Jul-03 18:41 225 3 gusting 10 13.3
2020-Jul-03 18:32 229 3 gusting 10 13.3
2020-Jul-03 18:23 227 4 gusting 10 13.3
2020-Jul-03 18:14 229 5 gusting 13 12.8
2020-Jul-03 18:05 229 4 gusting 10 12.8
2020-Jul-03 17:56 229 3 gusting 10 12.8
2020-Jul-03 17:47 225 3 gusting 11 12.8
2020-Jul-03 17:38 223 3 gusting 8 12.8
2020-Jul-03 17:29 235 3 gusting 10 12.8
2020-Jul-03 17:20 243 4 gusting 12 12.8
2020-Jul-03 17:11 238 5 gusting 13 13.3
2020-Jul-03 17:02 239 5 gusting 13 13.3
2020-Jul-03 16:53 235 6 gusting 15 13.3
2020-Jul-03 16:44 210 6 gusting 14 13.9
2020-Jul-03 16:35 192 5 gusting 11 13.9
2020-Jul-03 16:26 198 5 gusting 13 13.9
2020-Jul-03 16:17 193 3 gusting 10 13.9
2020-Jul-03 16:08 186 3 gusting 9 13.9
2020-Jul-03 15:59 199 3 gusting 8 13.9
2020-Jul-03 15:50 204 4 gusting 12 13.9
2020-Jul-03 15:41 200 5 gusting 18 14.4
2020-Jul-03 15:32 207 3 gusting 9 15.0
2020-Jul-03 15:23 217 3 gusting 11 15.6
2020-Jul-03 15:14 222 3 gusting 8 16.1
2020-Jul-03 15:05 204 2 gusting 10 16.1
2020-Jul-03 14:56 207 2 gusting 8 16.7
2020-Jul-03 14:47 214 3 gusting 9 16.7
2020-Jul-03 14:38 230 3 gusting 9 16.7
2020-Jul-03 14:29 227 3 gusting 10 17.2
2020-Jul-03 14:20 228 3 gusting 9 17.2
2020-Jul-03 14:11 243 3 gusting 8 17.2
2020-Jul-03 14:02 232 3 gusting 10 17.2
2020-Jul-03 13:53 235 2 gusting 7 17.2
2020-Jul-03 13:44 234 3 gusting 8 17.2
2020-Jul-03 13:35 236 3 gusting 7 17.2
2020-Jul-03 13:26 216 3 gusting 9 17.8
2020-Jul-03 13:17 237 2 gusting 8 17.2
2020-Jul-03 13:08 219 3 gusting 11 17.2
2020-Jul-03 12:59 202 4 gusting 8 16.7
2020-Jul-03 12:50 210 4 gusting 12 16.7
2020-Jul-03 12:41 203 3 gusting 8 16.1
2020-Jul-03 12:32 202 3 gusting 9 16.1
2020-Jul-03 12:23 192 2 gusting 6 16.7
2020-Jul-03 12:14 197 3 gusting 8 16.1
2020-Jul-03 12:05 196 4 gusting 9 16.1
2020-Jul-03 11:56 214 2 gusting 7 15.6
2020-Jul-03 11:47 184 3 gusting 8 15.6
2020-Jul-03 11:38 209 4 gusting 11 15.6
2020-Jul-03 11:29 209 3 gusting 9 16.1
2020-Jul-03 11:20 193 4 gusting 9 15.6
2020-Jul-03 11:11 198 4 gusting 9 15.6
2020-Jul-03 11:02 192 5 gusting 11 15.6
2020-Jul-03 10:53 184 4 gusting 10 15.6
2020-Jul-03 10:44 191 5 gusting 13 15.6
2020-Jul-03 10:35 187 4 gusting 8 15.6
2020-Jul-03 10:26 203 4 gusting 10 15.0
2020-Jul-03 10:17 205 4 gusting 9 15.6
2020-Jul-03 10:08 190 4 gusting 10 15.6
2020-Jul-03 09:59 200 3 gusting 9 15.6
2020-Jul-03 09:50 199 3 gusting 7 15.6
2020-Jul-03 09:41 232 2 gusting 8 15.0
2020-Jul-03 09:32 227 2 gusting 8 14.4
2020-Jul-03 09:23 213 2 gusting 9 13.9
2020-Jul-03 09:14 237 1 gusting 6 13.9
2020-Jul-03 09:05 246 1 gusting 4 14.4
2020-Jul-03 08:56 246 1 gusting 6 14.4
2020-Jul-03 08:47 236 1 gusting 5 14.4
2020-Jul-03 08:38 233 1 gusting 6 13.9
2020-Jul-03 08:29 225 2 gusting 8 13.9
2020-Jul-03 08:20 248 1 gusting 5 13.9
2020-Jul-03 08:11 272 1 gusting 5 14.4
2020-Jul-03 08:02 272 2 gusting 5 14.4
2020-Jul-03 07:53 258 1 gusting 5 14.4
2020-Jul-03 07:44 281 2 gusting 6 14.4
2020-Jul-03 07:35 294 3 gusting 7 14.4
2020-Jul-03 07:26 283 1 gusting 5 14.4
2020-Jul-03 07:17 287 1 gusting 7 14.4
2020-Jul-03 07:08 249 2 gusting 6 13.9
2020-Jul-03 06:59 254 1 gusting 5 13.9
2020-Jul-03 06:50 259 1 gusting 6 13.9
2020-Jul-03 06:41 241 0 gusting 5 14.4
2020-Jul-03 06:32 210 1 gusting 5 13.9
2020-Jul-03 06:14 180 1 gusting 4 13.9
2020-Jul-03 06:05 208 1 gusting 4 12.8
2020-Jul-03 05:56 200 0 gusting 4 12.8
2020-Jul-03 05:47 196 0 gusting 3 13.3
2020-Jul-03 05:38 247 0 gusting 2 12.8
2020-Jul-03 05:29 252 0 gusting 1 12.2
2020-Jul-03 05:20 12.2
2020-Jul-03 05:11 12.2
2020-Jul-03 05:02 11.7
2020-Jul-03 04:53 10.6
2020-Jul-03 04:44 10.0
2020-Jul-03 04:35 10.0
2020-Jul-03 04:26 10.0
2020-Jul-03 04:17 258 0 gusting 2 9.4
2020-Jul-03 04:08 8.9